LAOSAT 1

Last updated on Sun Jun 21 2026 00:03:06 GMT+0000 (Coordinated Universal Time)

1 41034U 15067A 26171.41749902 -.00000348 00000+0 00000+0 0 9998 2 41034 0.0438 143.4427 0002176 258.2064 145.7521 1.00268173 38898
UTC large
Height (km)
Speed (km/s)
/
Latitude / Longitude
Inclination (degrees)
Orbital Period (minutes)
Azimuth
Elevation
Range (km)
Doppler Factor

Next 0 passes for location: London (51.5072 / 0.1276)

No passes found over London.
LAOSAT 1